Regional Weather Roundup
Issued by NWS Wakefield, VA

Home | Current Version | Previous Version | Graphics & Text | Print | Product List | Glossary On
Versions: 1 2 3 4 5 6 7 8 9 10 11 12 13 14 15 16 17 18 19 20 21 22 23 24 25 26 27 28 29 30 31 32 33 34 35 36 37 38 39 40 41 42 43 44 45 46 47 48 49 50
614
ASUS41 KAKQ 022215
RWRAKQ

REGIONAL WEATHER ROUNDUP
NATIONAL WEATHER SERVICE WAKEFIELD VA
500 PM EST FRI DEC 02 2016

Note: "fair" indicates few or no clouds below 12,000 feet with no
significant weather and/or obstructions to visibility. * = Denotes
station may not report precipitation (e.g., rain,snow,etc.),
thunder or fog.

VAZ042-051-052>054-056-022300-
NORTHERN VIRGINIA

CITY           SKY/WX    TMP DP  RH WIND       PRES   REMARKS
WASH NATIONAL  PTCLDY    48  29  47 NW20G25   30.07R
DULLES         MOCLDY    43  28  55 NW18      30.07R
FORT BELVOIR   PTCLDY    47  28  48 NW13      30.06R
QUANTICO       PTCLDY    49  29  46 N12       30.07R
FREDERICKSBRG* CLEAR     51  32  48 W6        30.04S
STAFFORD*      CLEAR     47  31  52 N9G16     30.09R
WARRENTON      CLEAR     46  26  45 N9        30.05R
CULPEPER*      CLEAR     49  29  47 CALM      30.06S
MANASSAS*      CLEAR     45  30  57 N12G18    30.07R
LEESBURG*      CLOUDY    45  32  61 W13       30.09R
WINCHESTER     CLOUDY    39  28  65 W14G20    30.08S
FRONT ROYAL*   CLOUDY    43  30  61 NW12      30.07R
LURAY*         MOCLDY    43  32  65 NW7       30.06S
$$

VAZ048-049-060>072-079>083-022300-
CENTRAL AND SOUTH CENTRAL VIRGINIA

CITY           SKY/WX    TMP DP  RH WIND       PRES   REMARKS
RICHMOND       PTCLDY    51  30  44 W7        30.05R
CHESTERFIELD*  FAIR      52  23  32 SW3       30.06S
PETERSBURG*    CLEAR     47  31  53 SW3       30.06F
HANOVER        CLEAR     51  29  42 SW5       30.06S
TAPPAHANNOCK*  PTCLDY    50  26  38 W3        30.05S
QUINTON*       FAIR      50  32  48 W5        30.05R
CHARLOTTSVILLE CLEAR     49  29  46 VRB3      30.04S
GORDONSVILLE*  MOCLDY    49  31  48 CALM      30.04S
ORANGE*          N/A     48  32  53 CALM      30.06S
LOUISA*        CLEAR     52  34  50 W3        30.03S
BUMPASS*       FAIR      49  31  49 CALM      30.04S
FARMVILLE*     CLEAR     50  32  49 SW3       30.05F
CREWE*         FAIR      51  30  44 W6        30.06S
FORT PICKETT*  FAIR      49  24  37 W6        30.06S
CHASE CITY*    FAIR      50  28  43 W3        30.07S
CLARKSVILLE*   FAIR      46  32  57 CALM      30.07F
SOUTH HILL*    CLEAR     50  32  50 CALM      30.12F
LAWRENCEVILLE* FAIR      50  31  47 CALM      30.07S
EMPORIA*       CLEAR     50  32  50 SW3       30.09S
$$

VAZ088>098-022300-
SOUTHEAST VIRGINIA

CITY           SKY/WX    TMP DP  RH WIND       PRES   REMARKS
NORFOLK        CLEAR     52  32  46 W5        30.05R
VIRGINIA BEACH CLEAR     50  30  46 W8        30.05R
NORFOLK NAVAL  PTCLDY    53  32  44 W10       30.07R
WEST POINT*    CLEAR     49  32  51 W3        30.07R
SALUDA*        FAIR      50  33  51 W5        30.04R
NEWPORT NEWS   CLEAR     51  32  48 W8        30.05R
LANGLEY AFB    CLEAR     51  33  50 W7        30.04R
FORT EUSTIS    CLEAR     52  33  47 W5        30.03R
WILLIAMSBURG*  CLEAR     54  34  47 W7        30.06R
HR EXEC AP*    FAIR      48  30  49 W3        30.05R
FRANKLIN*      CLEAR     51  32  49 W5        30.07R
US460-WAKEFLD  CLEAR     50  34  54 W3        30.06R
$$

VAZ020-022-025-037-045-022300-
WEST CENTRAL AND SOUTHWEST VIRGINIA

CITY           SKY/WX    TMP DP  RH WIND       PRES   REMARKS
STAUNTON*      CLOUDY    42  28  57 W6        30.08R
WAYNESBORO*    FAIR      40  27  58 SW9       30.06S
HOT SPRINGS VA CLOUDY    30  28  93 W23G32    29.99S WCI  17
LYNCHBURG      CLEAR     46  28  49 CALM      30.09S
DANVILLE       CLEAR     51  31  46 W3        30.08S
SOUTH BOSTON*  FAIR      51  28  41 W3        30.08S
MARTINSVILLE   CLEAR     49  28  44 W3        30.12R
ROANOKE        PTCLDY    46  28  49 NW22G29   30.12S
BLACKSBURG     CLEAR     42  30  62 NW10G20   30.13R
DUBLIN*        PTCLDY    45  29  55 W16       30.12R
MARION*        CLEAR     46  24  42 W22G30    30.11F
HILLSVILLE*    CLEAR     44  25  47 W18G28    30.07S
RICHLANDS*     FAIR      42  26  54 NW12      30.14S
WISE*          CLEAR     43  23  45 W7        30.16S
ABINGDON*      CLEAR     48  26  42 W10       30.15F
$$

MDZ021>025-VAZ099-100-022300-
SOUTHERN MARYLAND AND THE DELMARVA PENINSULA

CITY           SKY/WX    TMP DP  RH WIND       PRES   REMARKS
PATUXENT RIVER PTCLDY    49  29  46 W9        30.03R
BAY BRIDGE APT CLEAR     46  30  53 NW17      30.05R
LEONARDTOWN    CLEAR     48  30  49 W3        30.04S
DOVER          CLEAR     46  29  51 W15       30.00R
GEORGETOWN     CLEAR     48  29  47 NW8G16    30.02R
EASTON         CLEAR     48  28  46 NW13G18   30.07R
CAMBRIDGE      CLEAR     46  32  57 NW7       30.03R
SALISBURY      CLEAR     48  30  49 W7        30.02R
OCEAN CITY     CLEAR     47  29  49 W7        30.02R
WALLOPS ISLAND CLEAR     47  33  58 SW3       30.03S
ACCOMACK*      CLEAR     48  36  63 CALM      30.03R
$$

NCZ012>017-030>032-022300-
NORTH CENTRAL AND EASTERN NORTH CAROLINA

CITY           SKY/WX    TMP DP  RH WIND       PRES   REMARKS
ROANOKE RAPIDS FAIR      52  32  46 W3        30.08S
RALEIGH        PTCLDY    53  29  39 W5        30.10R
ELIZABETH CITY CLEAR     49  33  54 W6        30.06R
AHOSKIE*       CLEAR     51  32  48 CALM      30.09R
EDENTON*       CLEAR     54  35  48 W3        30.08R
CURRITUCK*     CLEAR     52  32  46 W5        30.07R
KILL DEVIL HLS CLEAR     50  38  62 CALM      30.05R
MANTEO         CLEAR     50  34  54 NW5       30.07R
CAPE HATTERAS  CLEAR     51  39  63 W5        30.07S
TARBORO*       NOT AVBL
GOLDSBORO      CLEAR     55  30  38 W6        30.08R
WASHINGTON     CLEAR     53  32  44 W3        30.08S
GREENVILLE     CLEAR     54  32  43 CALM      30.10S
NEW BERN       CLEAR     52  33  48 W5        30.10R
WILMINGTON     CLEAR     54  33  45 NW6       30.12R
$$

VAZ048-022300-
ELSEWHERE

CITY           SKY/WX    TMP DP  RH WIND       PRES   REMARKS
HARRISBURG PA  MOCLDY    43  30  60 W15G23    30.01R
BALTIMORE      PTCLDY    44  29  55 NW16G23   30.05R
ANNAPOLIS      CLEAR     49  31  49 NW12G20   30.05R
ANDREWS AFB    CLEAR     46  28  50 NW14G24   30.04R
PHILADELPHIA   PTCLDY    47  25  42 W23G29    29.98R
HENDERSON NC   CLEAR     49  28  45 CALM      30.09R
GREENSBORO     PTCLDY    54  28  36 NW8       30.08S
ROCKY MOUNT    CLEAR     52  31  44 W6        30.09S
$$

VAZ100-022300-
MARINE

STATION/POSITION TIME  TEMP    WIND        PRES    WAVE   SWELL
                       AIR SEA DIR/SP/G            HT/PER HT/PER
                 (UTC) (F)     (DEG/KT/KT) (MB)    (FT/S) (FT/S)
BRANDYWINE LGT   2118   48     310/ 22/ 27   N/A
CAPE MAY NJ      2106   48 49  310/ 17/ 22 1014.7
LEWES DE         2118   49 51  300/ 18/ 24 1015.4
OCEAN-CITY-INLET 2112   50 52  320/ 10/ 13 1016.3
WACHAPREAGUE VA  2118   51 54  260/  2/  3 1016.7
THOMAS POINT MD  2200   47 50  310/ 18/ 20   N/A
GOOSES REEF MD   2120   52     360/ 14/ 17 1017.2
COVE POINT MD    2118   51     310/  6/  8 1017.1
SOLOMONS ISLAND  2112   52 53  260/  9/ 13   N/A
BISHOPS HEAD MD  2118   51 50  280/ 11/ 12 1016.8
PINEY POINT MD   2118          330/ 11/ 12   N/A
POTOMAC MD       2120   52     320/ 10/ 12 1015.9
CAMBRIDGE MD     2118   50 49  320/ 10/ 12 1015.8
LEWISETTA VA     2118   53 53  300/ 10/ 13 1016.6
RAPPAHANNOCK LGT 2118          280/ 14/ 15 1017.3
STINGRAY PT      2120   53     310/ 12/ 14 1017.3
YORK RVR RNG VA  2118   54     290/ 11/ 12 1016.5
YORKTOWN VA      2118   54 53  270/  9/ 10 1016.7
JAMESTOWN VA     2120   54     260/ 10/ 12   N/A
DOMINION TERM VA 2118   54     280/ 11/ 12 1017.4
KIPTOPEKE VA     2118      54  290/ 10/ 14   N/A
CHES BAY BRIDGE  2118   53 54  270/ 12/ 14 1017.1
CAPE HENRY VA    2118   53     260/  7/ 10   N/A
WILLOUBY STN VA  2118   54     270/ 16/ 17 1017.9
S CRANEY ISL VA  2118   54     250/  6/  8 1017.1
CAPE HENRY BUOY  2112      56                N/A     2/ 3
1ST LANDING BUOY 2120   54                 1017.2
CAPE CHARLES BUO 2126      56                N/A     2/ 8
OFFSHORE WE BUOY 2121      57                N/A     3/ 8
64NM E OF VA BCH 2150   51 59  290/ 12/ 14 1017.1S   4/ 6   3/ 6
DUCK PIER NC     2118   52 57  240/  9/ 12 1017.1
44100 DUCK FRF   2105      57                N/A     3/ 6
OREGON INLET NC  2112   52 59  290/  6/  9 1017.7
HATTERAS NC      2118   53 63  270/  9/ 11 1017.7
DIAMOND SHLS NC  2150   55 76  310/ 12/ 17 1018.0F   3/ 7   3/ 7
CAPE LOOKOUT NC  2100   57     290/ 10/ 13 1018.2S
$$




USA.gov is the U.S. government's official web portal to all federal, state and local government web resources and services.